Location: Bun Machan
(52.1403°N, 7.3744°W)
Time: 12:00:52
(UTC+00:00)

Tiangong - Pass Details

Date: 26 June 2021
Orbit: 373 x 386 km, 41.5° (Epoch: 31 July)

Event Time Altitude Azimuth Distance (km) Brightness Sun altitude
Exits shadow 03:04:28 10° 202° (SSW) 1,394 3.2 -7.5°
Reaches altitude 10° 03:04:31 10° 201° (SSW) 1,385 3.2 -7.5°
Maximum altitude 03:05:49 12° 176° (S) 1,271 3.2 -7.4°
Drops below altitude 10° 03:07:07 10° 151° (SSE) 1,389 3.6 -7.3°
Sets 03:10:10 0° 119° (ESE) 2,247 5.0 -7.0°
